This is the latest recevied weather packets stored in our database for station/object KM4RT-13. If no packets are shown the sender has not sent any weather packets the latest 10 day(s).
| Time | Temp. | Humidity | Pressure | Rain* | Wind** | Luminosity | Snow |
|---|---|---|---|---|---|---|---|
| 1777647210 | 16.11° C | 62% | 1014.9 hPa | 0 mm | - | 415 W/m² | - |
| 1777646907 | 15.56° C | 64% | 1015 hPa | 0 mm | - | 351 W/m² | - |
| 1777646602 | 15.56° C | 65% | 1015.1 hPa | 0 mm | - | 424 W/m² | - |
| 1777646299 | 15.56° C | 66% | 1015.2 hPa | 0 mm | - | 510 W/m² | - |
| 1777645996 | 15.56° C | 66% | 1015.1 hPa | 0 mm | - | 427 W/m² | - |
| 1777645693 | 15.56° C | 65% | 1015 hPa | 0 mm | - | 426 W/m² | - |
| 1777645389 | 15.56° C | 67% | 1015 hPa | 0 mm | - | 403 W/m² | - |
| 1777645084 | 15.56° C | 70% | 1015.2 hPa | 0 mm | - | 378 W/m² | - |
| 1777644781 | 15° C | 68% | 1015 hPa | 0 mm | - | 313 W/m² | - |
| 1777644479 | 15° C | 68% | 1015.2 hPa | 0 mm | - | 323 W/m² | - |
| 1777644175 | 15° C | 72% | 1014.8 hPa | 0 mm | - | 389 W/m² | - |
| 1777643871 | 14.44° C | 73% | 1014.7 hPa | 0 mm | - | 372 W/m² | - |
| 1777643569 | 14.44° C | 75% | 1014.9 hPa | 0 mm | - | 344 W/m² | - |
| 1777643265 | 14.44° C | 77% | 1014.7 hPa | 0 mm | - | 248 W/m² | - |
| 1777642962 | 14.44° C | 77% | 1014.5 hPa | 0 mm | - | 275 W/m² | - |
| 1777642658 | 14.44° C | 77% | 1014.6 hPa | 0 mm | - | 336 W/m² | - |
| 1777642356 | 14.44° C | 78% | 1014.5 hPa | 0 mm | - | 284 W/m² | - |
| 1777642052 | 14.44° C | 79% | 1014.3 hPa | 0 mm | - | 283 W/m² | - |
| 1777641748 | 14.44° C | 80% | 1014.2 hPa | 0 mm | - | 251 W/m² | - |
| 1777641443 | 13.89° C | 80% | 1014.5 hPa | 0 mm | - | 261 W/m² | - |
| 1777641139 | 13.89° C | 80% | 1014.4 hPa | 0 mm | - | 200 W/m² | - |
| 1777640829 | 13.89° C | 81% | 1014.5 hPa | 0 mm | - | 229 W/m² | - |
| 1777640526 | 13.33° C | 82% | 1014.6 hPa | 0 mm | - | 200 W/m² | - |
| 1777640223 | 13.33° C | 82% | 1014.5 hPa | 0 mm | - | 192 W/m² | - |
| 1777639920 | 13.33° C | 82% | 1014.6 hPa | 0 mm | - | 173 W/m² | - |
* Rain latest hour (hover to see other rain measurements)
** Current wind speed in m/s (hover to see current wind gust speed)